Retour au catalogue

STARLINK-37665

ActifCommunicationsVLEO
NORAD 69238·PAYLOAD·🇺🇸 United States

Lancé May 29, 2026 depuis Cape Canaveral Space Force Station

Loading…

Prochains Passages (prochaines 24 heures)

TLE

FraisSource: CelesTrak SupGP

Époque: Sep 14, 2026, 23:24 UTC

1 69238C 26117A   26257.97548611 -.00066717  00000+0 -19710-2 0  2573
2 69238  53.1568 179.6973 0001333  90.4250  37.6460 15.34426547    18

Suivez STARLINK-37665 en temps réel avec AllMySat

Download on the App Store